EW7318 Weather Reports


time (UTC)temp
C
wind
direction
speed
KPH
gust
KPH
rain 1hr
cm
rain 24hr
cm
rain mn
cm
humidity
%
barometer
mb
20260505024138 12 144 1.6 12.9 0.00 0.00 0.00 68 1038.1
20260505023636 12 170 0.0 12.9 0.00 0.00 0.00 68 1037.8
20260505023135 12 201 3.2 14.5 0.00 0.00 0.00 68 1037.8
20260505022633 12 169 6.4 14.5 0.00 0.00 0.00 68 1037.8
20260505022133 12 121 1.6 9.7 0.00 0.00 0.00 67 1038.1
20260505021630 12 150 1.6 9.7 0.00 0.00 0.00 67 1038.1
20260505021128 12 163 3.2 9.7 0.00 0.00 0.00 67 1038.1
20260505020628 12 158 1.6 9.7 0.00 0.00 0.00 66 1038.1
20260505020125 12 154 0.0 6.4 0.00 0.00 0.00 66 1038.1
20260505015624 12 147 1.6 12.9 0.00 0.00 0.00 66 1038.1
20260505014620 12 182 0.0 6.4 0.00 0.00 0.00 65 1038.1
20260505014119 12 148 1.6 6.4 0.00 0.00 0.00 65 1038.1
20260505013616 12 161 1.6 12.9 0.00 0.00 0.00 64 1038.1
20260505013116 12 155 0.0 12.9 0.00 0.00 0.00 64 1038.1
20260505012614 12 153 1.6 6.4 0.00 0.00 0.00 64 1037.8
20260505012114 12 211 4.8 11.3 0.00 0.00 0.00 63 1038.1
20260505011610 12 157 3.2 16.1 0.00 0.00 0.00 63 1037.8
20260505011109 12 254 8.0 16.1 0.00 0.00 0.00 63 1037.8
20260505010607 13 249 8.0 11.3 0.00 0.00 0.00 63 1037.5
20260505010106 13 172 1.6 11.3 0.00 0.00 0.00 62 1037.5
20260505005604 13 149 0.0 11.3 0.00 0.00 0.00 62 1037.1
20260505004100 13 173 1.6 14.5 0.00 0.00 0.00 60 1037.1
20260505003558 13 176 3.2 14.5 0.00 0.00 0.00 60 1036.8
20260505003057 13 165 6.4 11.3 0.00 0.00 0.00 59 1037.1
20260505002556 13 168 0.0 12.9 0.00 0.00 0.00 59 1036.8
20260505002055 13 131 3.2 14.5 0.00 0.00 0.00 58 1036.8
20260505001552 13 212 6.4 14.5 0.00 0.00 0.00 57 1036.4
20260505001051 13 232 6.4 12.9 0.00 0.00 0.00 57 1036.4
20260505000549 14 236 4.8 11.3 0.00 0.00 0.00 56 1036.8
20260505000059 14 260 6.4 16.1 0.00 0.00 0.00 55 1036.4
20260504235547 14 183 1.6 12.9 0.00 0.00 0.00 54 1036.4
20260504235045 14 154 3.2 12.9 0.00 0.00 0.00 53 1036.1
20260504234543 15 178 6.4 16.1 0.00 0.00 0.00 52 1036.1
20260504234055 15 184 4.8 16.1 0.00 0.00 0.00 51 1036.4
20260504233540 15 194 3.2 17.7 0.00 0.00 0.00 50 1036.1
20260504233039 15 180 6.4 17.7 0.00 0.00 0.00 49 1036.4
20260504232539 16 183 4.8 11.3 0.00 0.00 0.00 48 1036.1
20260504231534 16 271 6.4 14.5 0.00 0.00 0.00 46 1036.1
20260504231034 16 146 6.4 14.5 0.00 0.00 0.00 45 1035.8
20260504230033 17 163 6.4 17.7 0.00 0.00 0.00 44 1035.8
20260504225530 17 230 3.2 12.9 0.00 0.00 0.00 44 1035.8
20260504225029 17 243 4.8 12.9 0.00 0.00 0.00 43 1035.4
20260504224527 17 162 3.2 16.1 0.00 0.00 0.00 42 1035.4
20260504224025 17 136 8.0 17.7 0.00 0.00 0.00 42 1035.4
20260504223524 17 210 6.4 27.4 0.00 0.00 0.00 42 1035.4
20260504222520 17 162 6.4 24.1 0.00 0.00 0.00 41 1035.4
20260504222020 18 149 6.4 24.1 0.00 0.00 0.00 40 1035.4
20260504221519 18 164 4.8 24.1 0.00 0.00 0.00 40 1035.4
20260504221017 18 278 9.7 16.1 0.00 0.00 0.00 40 1035.4
20260504215513 18 171 4.8 20.9 0.00 0.00 0.00 39 1035.8
20260504215013 18 271 4.8 17.7 0.00 0.00 0.00 38 1035.4
20260504214509 18 145 6.4 25.7 0.00 0.00 0.00 38 1035.4
20260504213506 19 286 6.4 20.9 0.00 0.00 0.00 39 1035.4
20260504213006 19 223 6.4 17.7 0.00 0.00 0.00 39 1035.4
20260504212502 19 221 9.7 17.7 0.00 0.00 0.00 39 1035.1
20260504212004 19 92 3.2 17.7 0.00 0.00 0.00 38 1035.1
20260504211500 19 163 8.0 24.1 0.00 0.00 0.00 38 1035.4
20260504211001 19 252 14.5 25.7 0.00 0.00 0.00 38 1035.4
20260504210457 20 257 16.1 25.7 0.00 0.00 0.00 37 1035.1
20260504205957 20 271 9.7 20.9 0.00 0.00 0.00 37 1035.1
20260504205455 20 169 3.2 17.7 0.00 0.00 0.00 37 1035.4
20260504204954 20 296 6.4 17.7 0.00 0.00 0.00 37 1035.1
20260504204452 20 161 3.2 22.5 0.00 0.00 0.00 37 1035.1
20260504203951 19 148 3.2 22.5 0.00 0.00 0.00 38 1035.4
20260504203449 20 252 4.8 20.9 0.00 0.00 0.00 36 1035.1
20260504202950 20 159 6.4 17.7 0.00 0.00 0.00 36 1035.1
20260504202446 20 300 1.6 17.7 0.00 0.00 0.00 35 1034.8
20260504201946 20 198 6.4 20.9 0.00 0.00 0.00 34 1035.1
20260504201443 20 279 14.5 20.9 0.00 0.00 0.00 34 1034.8
20260504200943 20 219 9.7 20.9 0.00 0.00 0.00 35 1035.1
20260504200441 20 286 14.5 17.7 0.00 0.00 0.00 34 1035.1
20260504195940 20 167 6.4 16.1 0.00 0.00 0.00 34 1035.1
20260504194435 20 172 6.4 25.7 0.00 0.00 0.00 32 1035.1
20260504193934 20 141 3.2 25.7 0.00 0.00 0.00 32 1035.1
20260504192932 21 275 1.6 29.0 0.00 0.00 0.00 31 1035.4
20260504192429 20 186 11.3 29.0 0.00 0.00 0.00 31 1035.1
20260504191930 21 262 6.4 25.7 0.00 0.00 0.00 29 1035.1
20260504191427 21 253 6.4 22.5 0.00 0.00 0.00 29 1035.1
20260504190925 21 192 4.8 22.5 0.00 0.00 0.00 30 1035.1
20260504190424 21 189 3.2 12.9 0.00 0.00 0.00 29 1035.1
20260504185922 21 319 6.4 17.7 0.00 0.00 0.00 29 1035.1
20260504185418 20 57 6.4 17.7 0.00 0.00 0.00 28 1035.4
20260504184917 20 278 6.4 17.7 0.00 0.00 0.00 28 1035.4
20260504184414 21 264 12.9 25.7 0.00 0.00 0.00 28 1035.4
20260504183914 20 179 8.0 25.7 0.00 0.00 0.00 28 1035.4
20260504182912 20 220 9.7 24.1 0.00 0.00 0.00 28 1035.4
20260504182410 20 230 17.7 24.1 0.00 0.00 0.00 28 1035.4
20260504181406 21 280 9.7 20.9 0.00 0.00 0.00 28 1035.4
20260504180904 20 233 9.7 22.5 0.00 0.00 0.00 27 1036.1
20260504180405 20 164 4.8 25.7 0.00 0.00 0.00 28 1035.8
20260504175901 20 232 11.3 25.7 0.00 0.00 0.00 28 1035.8
20260504175401 21 158 1.6 24.1 0.00 0.00 0.00 27 1035.8
20260504174859 20 77 3.2 24.1 0.00 0.00 0.00 28 1035.8
20260504174357 21 229 9.7 22.5 0.00 0.00 0.00 27 1035.8
20260504173856 20 129 4.8 22.5 0.00 0.00 0.00 28 1035.8
20260504173354 21 1 11.3 27.4 0.00 0.00 0.00 27 1035.8
20260504172853 21 213 8.0 17.7 0.00 0.00 0.00 26 1035.8
20260504172351 20 185 4.8 24.1 0.00 0.00 0.00 29 1035.8
20260504171852 20 263 3.2 24.1 0.00 0.00 0.00 28 1035.8
20260504171349 20 21 4.8 22.5 0.00 0.00 0.00 27 1035.8
20260504170849 20 165 11.3 24.1 0.00 0.00 0.00 27 1035.8
20260504160328 20 197 14.5 27.4 0.00 0.00 0.00 27 1036.8
20260504150812 20 244 6.4 40.2 0.00 0.00 0.00 30 1037.1
20260504150311 19 256 14.5 40.2 0.00 0.00 0.00 31 1037.1
20260504141256 18 102 3.2 29.0 0.00 0.00 0.00 33 1037.8
20260504140755 18 188 4.8 30.6 0.00 0.00 0.00 34 1037.8
20260504140253 18 257 6.4 30.6 0.00 0.00 0.00 34 1038.1
20260504130737 16 242 19.3 27.4 0.00 0.00 0.00 37 1038.1
20260504130236 15 193 14.5 22.5 0.00 0.00 0.00 39 1038.1
20260504120229 12 328 14.5 24.1 0.00 0.00 0.00 44 1038.1
20260504110700 10 265 4.8 11.3 0.00 0.00 0.00 50 1038.1
20260504110200 9 138 3.2 14.5 0.00 0.00 0.00 52 1038.5
20260504100140 8 10 1.6 12.9 0.00 0.00 0.00 52 1037.8
20260504081611 8 139 1.6 9.7 0.00 0.00 0.00 49 1037.5
20260504080113 8 141 0.0 4.8 0.00 0.00 0.00 47 1037.8
20260504050513 6 139 0.0 0.0 0.00 0.00 0.00 52 1037.8
20260504050009 6 210 0.0 0.0 0.00 0.00 0.00 51 1037.8
20260504045509 6 144 0.0 0.0 0.00 0.00 0.00 51 1037.8
20260504045006 6 113 0.0 0.0 0.00 0.00 0.00 51 1037.8
20260504044506 6 142 0.0 0.0 0.00 0.00 0.00 51 1038.1
20260504044003 6 136 0.0 0.0 0.00 0.00 0.00 50 1037.8
20260504043502 7 149 0.0 0.0 0.00 0.00 0.00 51 1037.8
20260504043002 7 148 0.0 0.0 0.00 0.00 0.00 50 1037.8
20260504042459 7 137 0.0 1.6 0.00 0.00 0.00 50 1037.8
20260504041957 7 142 0.0 1.6 0.00 0.00 0.00 49 1037.5
20260504040955 7 165 0.0 0.0 0.00 0.00 0.00 49 1037.8
20260504040454 7 142 0.0 0.0 0.00 0.00 0.00 50 1037.8
20260504035952 7 145 0.0 0.0 0.00 0.00 0.00 49 1037.5
20260504035451 7 181 0.0 0.0 0.00 0.00 0.00 50 1037.5
20260504034449 7 160 0.0 4.8 0.00 0.00 0.00 50 1037.5
20260504033945 7 138 1.6 6.4 0.00 0.00 0.00 49 1037.5
20260504033445 6 145 0.0 6.4 0.00 0.00 0.00 51 1037.5
20260504032943 6 149 0.0 0.0 0.00 0.00 0.00 51 1037.5
20260504032441 6 118 0.0 0.0 0.00 0.00 0.00 51 1037.5
20260504031940 6 195 0.0 0.0 0.00 0.00 0.00 52 1037.5
20260504031439 6 146 0.0 0.0 0.00 0.00 0.00 52 1037.1
20260504030937 6 146 0.0 1.6 0.00 0.00 0.00 52 1037.1
20260504025933 6 203 1.6 3.2 0.00 0.00 0.00 52 1037.1
20260504025434 6 158 1.6 3.2 0.00 0.00 0.00 55 1037.1
20260504024931 6 151 0.0 3.2 0.00 0.00 0.00 54 1037.1